Sigfox identifier Datetime Temperature Humidity SNR
00393844 2018-10-09 08:42:48 20.4 39 15.7
00393844 2018-10-09 07:41:42 20.4 39 15.3
00393844 2018-10-09 06:40:39 20.4 38 15.2
00393844 2018-10-09 05:39:34 20.4 38 14.8
00393844 2018-10-09 04:38:29 20.5 38 14.7
00393844 2018-10-09 01:35:19 20.4 38 13.6
00393844 2018-10-09 00:34:15 20.4 38 13
00393844 2018-10-08 23:33:14 20.4 38 13
00393844 2018-10-08 22:32:12 20.4 38 12.5
00393844 2018-10-08 21:31:13 20.4 38 12.6
00393844 2018-10-08 20:30:10 20.4 38 12.2
00393844 2018-10-08 19:29:08 20.4 38 11.6
00393844 2018-10-08 18:28:04 20.4 38 11.5
00393844 2018-10-08 17:27:05 20.4 38 10.9
00393844 2018-10-08 16:26:03 20.4 38 10.7
00393844 2018-10-08 15:24:58 20.4 38 10.8
00393844 2018-10-08 13:22:56 20.4 37 10.8
00393844 2018-10-08 11:20:51 20.4 37 10.9
00393844 2018-10-08 10:19:42 20.4 37 11
00393844 2018-10-08 09:18:41 20.4 37 11.1
00393844 2018-10-08 08:17:37 20.4 37 11.3
00393844 2018-10-08 07:16:29 20.4 37 11.3
00393844 2018-10-08 06:15:26 20.4 38 11
00393844 2018-10-08 05:14:22 20.4 38 11
00393844 2018-10-08 04:13:17 20.4 38 11.1
00393844 2018-10-08 03:12:07 20.4 38 10.8
00393844 2018-10-08 02:11:00 20.4 38 17.1
00393844 2018-10-08 01:09:53 20.4 39 17.1
00393844 2018-10-08 00:08:48 20.6 39 17.1
00393844 2018-10-07 23:07:46 20.5 39 17.1
00393844 2018-10-07 22:06:46 20.6 39 17.1
00393844 2018-10-07 21:05:35 20.6 40 17.1
00393844 2018-10-07 20:04:31 20.6 40 17.1
00393844 2018-10-07 19:03:28 20.6 40 17.1
00393844 2018-10-07 18:02:24 20.6 40 17.1
00393844 2018-10-07 17:01:18 20.6 40 19.6
00393844 2018-10-07 16:00:14 20.6 40 19.6
00393844 2018-10-07 13:57:57 20.6 40 19.6
00393844 2018-10-07 12:56:49 20.6 40 19.6
00393844 2018-10-07 10:54:37 20.6 40 19.6
00393844 2018-10-07 08:52:20 20.6 40 19.6
00393844 2018-10-07 07:51:11 20.6 40 19.6
00393844 2018-10-07 06:50:02 20.7 41 19.6
00393844 2018-10-07 05:48:54 20.6 41 19.5
00393844 2018-10-07 04:47:44 20.7 41 19.6
00393844 2018-10-07 03:46:36 20.8 41 19.6
00393844 2018-10-07 02:45:25 20.8 41 19.7
00393844 2018-10-07 01:44:15 20.8 41 19.9
00393844 2018-10-07 00:43:07 20.8 41 20.1
00393844 2018-10-06 23:41:57 20.8 41 20.2
00393844 2018-10-06 19:37:16 20.8 41 20.4
00393844 2018-10-06 18:36:07 20.8 41 18.1
00393844 2018-10-06 17:34:56 20.8 41 18.2
00393844 2018-10-06 16:33:46 20.8 41 18.4
00393844 2018-10-06 14:31:31 20.8 42 18.7
00393844 2018-10-06 13:30:18 20.8 42 18.9
00393844 2018-10-06 12:29:10 20.8 42 19.2
00393844 2018-10-06 11:27:55 20.8 42 19.5
00393844 2018-10-06 09:25:37 20.9 42 19.8
00393844 2018-10-06 07:23:21 21 42 20.1
00393844 2018-10-06 04:19:47 21 43 11.2
00393844 2018-10-06 02:17:34 21 43 11.4
00393844 2018-10-06 01:16:20 21 43 11.3
00393844 2018-10-05 23:14:03 21.1 44 11.6
00393844 2018-10-05 22:12:56 21.2 44 11.8
00393844 2018-10-05 21:11:49 21.2 44 11.9
00393844 2018-10-05 20:10:36 21.2 44 12.7
00393844 2018-10-05 19:09:29 21.2 45 13.3
00393844 2018-10-05 18:08:21 21.2 45 13.8
00393844 2018-10-05 15:05:07 21.2 50 13.5
00393844 2018-10-05 14:03:58 21.4 57 0